Terug naar catalogus

SUPERBIRD 4

ActiefCommunicatieGEO
NORAD 26095·PAYLOAD·🇯🇵 Japan

Gelanceerd Feb 18, 2000 vanaf Guiana Space Centre

Loading…

TLE

VersSource: Space-Track

Epoch: Sep 14, 2026, 13:28 UTC

1 26095U 00012A   26257.56173100 -.00000228  00000-0  00000-0 0  9993
2 26095   8.5039  63.6496 0018256 154.0601 148.0334  0.98853981 45656

Volg SUPERBIRD 4 in realtime met AllMySat

Download on the App Store